Location: Bella Coola
(52.3721°N, 126.7539°W)
Time: 01:32:50
(UTC-07:00)

ISS - Pass Details

Date: 27 May 2019
Orbit: 407 x 419 km, 51.6° (Epoch: 26 June)

Event Time Altitude Azimuth Distance (km) Brightness Sun altitude
Rises 23:34:52 0° 281° (WNW) 2,361 0.6 -12.4°
Reaches altitude 10° 23:37:01 10° 274° (W) 1,498 -0.6 -12.6°
Maximum altitude 23:40:12 41° 203° (SSW) 621 -3.2 -12.8°
Enters shadow 23:41:47 24° 147° (SSE) 918 -2.7 -12.9°
